Regional Weather Roundup
Issued by NWS

Home | Current Version | Previous Version | Graphics & Text | Print | Product List | Glossary On
Versions: 1 2 3 4 5 6 7 8 9 10 11 12 13 14 15 16 17 18 19 20 21 22 23 24 25 26 27 28 29 30 31 32 33 34 35 36 37 38 39 40 41 42 43 44 45 46 47 48 49 50
863
ASUS43 KMPX 222001
RWRMN
WEATHER ROUNDUP FOR MINNESOTA
NATIONAL WEATHER SERVICE TWIN CITIES/CHANHASSEN MN
300 PM CDT SAT JUL 22 2017


NOTE: "FAIR" INDICATES FEW OR NO CLOUDS BELOW 12,000 FEET WITH NO
SIGNIFICANT WEATHER AND/OR OBSTRUCTIONS TO VISIBILITY. N/A MEANS
CURRENT SKY AND/OR WEATHER CONDITIONS ARE NOT AVAILABLE.

MNZ060>063-068>070-222100-
   Twin Cities Metro

CITY           SKY/WX    TMP DP  RH WIND       PRES   REMARKS
TWIN CITIES    PTSUNNY   88  69  53 W9        29.81S HX  92
ST PAUL        MOSUNNY   88  67  49 W12       29.80S HX  91
CRYSTAL        MOSUNNY   88  66  48 W10       29.80S HX  90
BLAINE         PTSUNNY   90  68  48 NW9       29.81S HX  93
LAKEVILLE      MOSUNNY   84  72  65 W5        29.83S
EDEN PRAIRIE   MOSUNNY   88  70  55 W9        29.81S HX  93
SOUTH ST PAUL  MOSUNNY   87  66  49 W7        29.80S
LAKE ELMO      FAIR      86  68  54 NW8       29.82S
$$
MNZ001>005-007-008-013>017-022>024-027-028-222100-
   Northwest Minnesota

CITY           SKY/WX    TMP DP  RH WIND       PRES   REMARKS
BEMIDJI        SUNNY     80  55  41 W18G28    29.84S
HALLOCK        PTSUNNY   75  57  53 NW17G25   29.81R
ROSEAU         MOSUNNY   73  63  68 W13G21    29.80R
WARROAD        SUNNY     73  63  68 W13G22    29.79R
CROOKSTON      SUNNY     81  57  44 NW17G23   29.84S
FOSSTON        SUNNY     77  55  47 W16       29.86S
DETROIT LAKES  SUNNY     81  55  41 NW17      29.89R
MOORHEAD       SUNNY     82  55  39 NW14      29.87R
PARK RAPIDS    MOSUNNY   84  62  47 W17G24    29.85S
MAHNOMEN       FAIR      78  58  50 W20G25    29.87R
$$
MNZ006-009>011-018-025>026-222100-
   North Central Minnesota

CITY           SKY/WX    TMP DP  RH WIND       PRES   REMARKS
BAUDETTE       PTSUNNY   80  57  45 NW15      29.77S
FLAG ISLAND    MOSUNNY   75  59  57 W9        29.74S HAZE
INTL FALLS     MOSUNNY   82  61  48 NW8       29.76F
WASKISH        PTSUNNY   79  61  53 W14       29.80S
BIG FORK       SUNNY     82  61  47 W8        29.81S
LONGVILLE      SUNNY     81  61  50 NW7G20    29.83S
GRAND RAPIDS   MOSUNNY   81  62  52 W9G17     29.84S
CRANE LAKE     SUNNY     75  64  69 W5        29.80F
ORR            MOSUNNY   79  63  57 NW5       29.77S
COOK           SUNNY     81  64  57 SW7       29.80F
WALKER         MOCLDY    80  59  48 NW15G21   29.83S
$$
MNZ012-019>021-037-222100-
   Northeast Minnesota

CITY           SKY/WX    TMP DP  RH WIND       PRES   REMARKS
DULUTH         MOSUNNY   71  63  75 SE7       29.83F
ELY            PTSUNNY   75  61  60 W10       29.81S
HIBBING        MOSUNNY   80  60  50 W8G17     29.81S
EVELETH        MOSUNNY   78  53  41 W5        29.83S
DULUTH HARBOR  SUNNY     64  59  82 NE8       29.84F
TWO HARBORS    CLOUDY    70  61  73 SE6       29.84R
SILVER BAY     MOSUNNY   70  57  64 E8        29.83S
GRAND MARAIS     N/A     57  51  80 E13       29.84R
G MARAIS ARPRT CLOUDY    68  55  64 E5        29.86R
$$
MNZ029>031-032-039>041-046>048-054>057-064-222100-
   West Central Minnesota

CITY           SKY/WX    TMP DP  RH WIND       PRES   REMARKS
FERGUS FALLS   SUNNY     81  63  54 NW14G21   29.86S
WHEATON        SUNNY     84  63  48 NW10      29.89S
MORRIS         SUNNY     88  66  48 NW15G21   29.86S HX  90
ALEXANDRIA     SUNNY     82  66  58 NW16      29.89S
ELBOW LAKE     FAIR      81  67  63 NW16      29.88S HAZE
WADENA         SUNNY     81  63  54 NW14      29.86S
GLENWOOD       SUNNY     84  70  61 NW15G24   29.88S
APPLETON       SUNNY     88  66  48 NW10G16   29.86S HX  90
BENSON         SUNNY     88  66  48 N14G20    29.88S HX  90
ORTONVILLE     SUNNY     88  66  48 N12       29.87S HX  90
MADISON        SUNNY     90  68  48 NW12      29.87S HX  93
WILLMAR        FAIR      84  70  61 NW13      29.88R
$$
MNZ033>034-036-042>043-049>051-058-059-222100-
   Central Minnesota

CITY           SKY/WX    TMP DP  RH WIND       PRES   REMARKS
ST CLOUD       SUNNY     86  68  54 NW12      29.83S
SAUK CENTRE    FAIR      83  67  59 NW14G21   29.87R
PAYNESVILLE    MOSUNNY   87  67  50 NW13G21   29.87R HX  90
AITKIN         SUNNY     82  64  54 W8        29.82S
PINE RIVER     SUNNY     82  63  51 NW8       29.87R
BRAINERD       SUNNY     84  60  44 NW14      29.84R
STAPLES        SUNNY     82  61  47 W14       29.85S
LONG PRAIRIE   FAIR      82  64  54 W12       29.87S
LITTLE FALLS   SUNNY     82  63  51 W13G18    29.85S
LITCHFIELD     SUNNY     90  70  51 NW13G18   29.85R HX  95
BUFFALO        SUNNY     87  63  44 W10       29.84S
MAPLE LAKE     SUNNY     88  68  52 W9G16     29.85R HX  91
HUTCHINSON     MOSUNNY   86  72  63 W10       29.86R HX  92
$$
MNZ037-044-045-052-053-222100-
   East Central Minnesota

CITY           SKY/WX    TMP DP  RH WIND       PRES   REMARKS
PRINCETON      MOSUNNY   88  68  51 W10       29.83R HX  91
MORA           MOSUNNY   82  64  54 NW7       29.84S
CAMBRIDGE      MOSUNNY   88  70  55 NW9G17    29.81S HX  92
RUSH CITY      MOSUNNY   84  68  59 CALM      29.82S HAZE
MOOSE LAKE     MOSUNNY   82  64  54 NW5       29.80S
HINCKLEY       FAIR      82  66  57 W8        29.82S
CLOQUET        SUNNY     75  64  69 E7        29.83S
MCGREGOR       CLOUDY    82  64  54 NW5       29.83S
$$
MNZ071>073-080-081-089-090-097-098-222100-
   Southwest Minnesota

CITY           SKY/WX    TMP DP  RH WIND       PRES   REMARKS
MONTEVIDEO     SUNNY     90  73  58 N9        29.87S HX  98
GRANITE FALLS  MOSUNNY   87  73  62 W8        29.89R HX  94
CANBY          SUNNY     92  61  35 W8        29.89S HX  91
MARSHALL       PTSUNNY   84  72  67 NW10      29.89R
REDWOOD FALLS  MOSUNNY   84  71  65 NW8       29.86R
OLIVIA         MOSUNNY   84  68  58 NW16      29.86R
PIPESTONE      PTSUNNY   84  66  54 NW8       29.93S
WINDOM         SUNNY     88  72  58 W12       29.89R HX  94
WORTHINGTON    MOSUNNY   85  69  58 NW13      29.92R
JACKSON        MOSUNNY   84  70  61 NW12G17   29.89F
SLAYTON        MOSUNNY   83  70  63 W9        29.92S
$$
MNZ065>067-074>077-082>085-091>093-222100-
   South Central Minnesota

CITY           SKY/WX    TMP DP  RH WIND       PRES   REMARKS
MANKATO        CLOUDY    84  72  67 W9        29.85S
NEW ULM        MOSUNNY   84  72  65 NW9       29.85R
ST JAMES       PTSUNNY   82  73  74 NW7       29.87S
FAIRMONT       PTSUNNY   84  73  69 NW12      29.86F HX  90
GLENCOE        MOSUNNY   86  74  68 W7        29.84R HX  93
FARIBAULT      MOSUNNY   84  72  65 W5        29.85R
OWATONNA       MOSUNNY   82  72  69 W7        29.85S
WASECA         MOSUNNY   81  70  69 W3        29.87S
ALBERT LEA     SUNNY     81  70  69 NW3       29.86S
$$
MNZ078>079-086>088-094>096-222100-
   Southeast Minnesota

CITY           SKY/WX    TMP DP  RH WIND       PRES   REMARKS
ROCHESTER      MOSUNNY   80  74  81 SW5       29.86S
RED WING       MOSUNNY   88  64  45 W7        29.80F
STANTON        MOSUNNY   85  70  60 W9        29.82S
DODGE CENTER   MOSUNNY   82  70  65 NW8       29.86S
WINONA         SUNNY     81  70  69 CALM      29.82S
AUSTIN         MOSUNNY   81  70  69 NW5       29.85S
PRESTON        MOSUNNY   78  70  76 SW3       29.86F
$$
ABBREVIATIONS USED IN REMARKS
   TC - TEMPERATURES IN CELSIUS
  WCI - WIND CHILL INDEX
   HX - HEAT INDEX
  VSB - VISIBILITY
$$




USA.gov is the U.S. government's official web portal to all federal, state and local government web resources and services.